FW1194 Weather Reports


time (UTC)temp
F
wind
direction
speed
knots
gust
knots
rain 1hr
in
rain 24hr
in
rain mn
in
humidity
%
barometer
mb
20260505060217 60 293 2.6 3.5 0.00 0.19 0.00 42 1001.8
20260505055217 60 293 5.2 8.7 0.00 0.19 0.00 41 1001.7
20260505054217 60 270 4.3 7.0 0.00 0.19 0.00 41 1001.6
20260505053216 60 270 7.8 9.6 0.00 0.19 0.00 41 1001.5
20260505052217 60 270 5.2 7.8 0.00 0.19 0.00 43 1001.3
20260505051217 60 293 5.2 7.0 0.00 0.19 0.00 44 1001.1
20260505050217 60 248 2.6 4.3 0.00 0.19 0.00 44 1000.8
20260505041217 61 270 3.5 6.1 0.00 0.19 0.19 66 1000.5
20260505040217 61 270 5.2 7.8 0.00 0.19 0.19 69 1000.3
20260505035237 61 248 3.5 3.5 0.00 0.19 0.19 71 1000.3
20260505034217 61 0 5.2 7.8 0.00 0.19 0.19 70 1000.0
20260505033217 62 0 3.5 4.3 0.00 0.19 0.19 70 1000.0
20260505032217 62 225 4.3 6.1 0.00 0.19 0.19 70 999.7
20260505031217 62 248 2.6 6.1 0.00 0.19 0.19 69 999.7
20260505030217 62 0 4.3 7.0 0.00 0.19 0.19 70 999.6
20260505025217 62 0 5.2 9.6 0.00 0.19 0.19 70 999.8
20260505024217 62 0 6.1 10.4 0.00 0.19 0.19 71 999.7
20260505023217 62 0 6.1 8.7 0.00 0.19 0.19 71 999.3
20260505022238 62 225 5.2 7.8 0.00 0.19 0.19 71 998.9
20260505021217 62 0 5.2 7.8 0.00 0.19 0.19 71 998.6
20260505020217 63 0 5.2 7.8 0.00 0.19 0.19 71 998.2
20260505015217 63 0 6.1 9.6 0.00 0.19 0.19 70 998.1
20260505014217 63 225 5.2 7.8 0.00 0.19 0.19 70 997.9
20260505013217 63 225 7.0 8.7 0.00 0.19 0.19 70 997.7
20260505012217 64 0 7.8 13.0 0.00 0.19 0.19 72 997.8
20260505011237 64 203 7.8 12.2 0.00 0.19 0.19 73 997.5
20260505010217 64 203 7.0 11.3 0.00 0.19 0.19 74 997.1
20260505005217 64 180 6.1 10.4 0.00 0.19 0.19 74 997.3
20260505004237 64 180 5.2 10.4 0.00 0.19 0.19 73 997.1
20260505003217 64 180 5.2 9.6 0.00 0.19 0.19 74 996.1
20260505002217 63 203 5.2 7.8 0.00 0.19 0.19 76 996.0
20260505001217 63 203 1.7 2.6 0.01 0.19 0.19 77 996.3
20260505000218 63 158 1.7 2.6 0.04 0.19 0.19 78 996.1
20260504235217 62 180 1.7 2.6 0.13 0.19 0.19 78 996.2
20260504234217 62 158 0.9 2.6 0.18 0.19 0.19 76 996.0
20260504233217 63 113 2.6 3.5 0.19 0.19 0.19 74 996.1
20260504232217 64 158 5.2 7.0 0.19 0.19 0.19 74 996.7
20260504231217 65 180 4.3 6.1 0.18 0.18 0.18 72 996.6
20260504230217 66 113 0.9 1.7 0.12 0.12 0.12 70 997.0
20260504225216 69 293 1.7 2.6 0.06 0.06 0.06 62 996.8
20260504224217 73 270 7.8 12.2 0.01 0.01 0.01 54 997.3
20260504223217 76 225 7.0 11.3 0.00 0.00 0.00 44 996.8
20260504222217 78 0 5.2 10.4 0.00 0.00 0.00 36 996.5
20260504221237 79 0 7.0 10.4 0.00 0.00 0.00 32 996.5
20260504220217 80 0 7.8 10.4 0.00 0.00 0.00 31 996.6
20260504215217 80 0 7.8 13.0 0.00 0.00 0.00 33 996.5
20260504214237 79 0 10.4 17.4 0.00 0.00 0.00 35 996.8
20260504213217 78 0 10.4 13.0 0.00 0.00 0.00 34 996.9
20260504212258 79 203 6.1 7.8 0.00 0.00 0.00 36 996.9
20260504211217 79 0 9.6 15.6 0.00 0.00 0.00 35 997.2
20260504210237 79 0 8.7 12.2 0.00 0.00 0.00 34 997.4
20260504205216 80 248 10.4 20.0 0.00 0.00 0.00 30 997.4
20260504204216 80 248 7.0 9.6 0.00 0.00 0.00 29 997.6
20260504203217 81 270 4.3 7.8 0.00 0.00 0.00 30 997.5
20260504202217 81 0 7.8 13.0 0.00 0.00 0.00 29 997.6
20260504201216 81 0 9.6 12.2 0.00 0.00 0.00 30 997.7
20260504200216 81 270 10.4 14.8 0.00 0.00 0.00 28 997.9
20260504195216 79 270 6.1 9.6 0.00 0.00 0.00 30 998.1
20260504194237 79 225 7.0 10.4 0.00 0.00 0.00 29 998.3
20260504193237 79 248 8.7 12.2 0.00 0.00 0.00 28 998.4
20260504192218 79 248 14.8 20.9 0.00 0.00 0.00 28 998.5
20260504191216 79 0 13.0 17.4 0.00 0.00 0.00 30 998.7
20260504190216 80 203 10.4 14.8 0.00 0.00 0.00 32 998.8
20260504185216 79 248 8.7 13.0 0.00 0.00 0.00 30 998.8
20260504184216 79 0 9.6 14.8 0.00 0.00 0.00 31 999.0
20260504183216 78 248 8.7 13.0 0.00 0.00 0.00 32 998.9
20260504182216 78 248 9.6 13.0 0.00 0.00 0.00 31 998.9
20260504181216 78 225 10.4 17.4 0.00 0.00 0.00 31 999.1
20260504180216 78 225 8.7 13.0 0.00 0.00 0.00 31 999.3
20260504175216 77 203 13.9 20.9 0.00 0.00 0.00 32 999.5
20260504174216 76 270 9.6 18.2 0.00 0.00 0.00 33 999.5
20260504173257 76 225 8.7 11.3 0.00 0.00 0.00 36 999.8
20260504172216 75 180 7.0 9.6 0.00 0.00 0.00 39 999.9
20260504171216 75 270 7.8 13.9 0.00 0.00 0.00 39 999.9
20260504170216 75 248 8.7 12.2 0.00 0.00 0.00 37 1000.3
20260504160216 72 0 7.0 9.6 0.00 0.00 0.00 41 1001.1
20260504150236 68 0 8.7 12.2 0.00 0.00 0.00 45 1001.7
20260504141216 64 0 7.8 13.9 0.00 0.00 0.00 54 1002.4
20260504140216 62 0 5.2 7.0 0.00 0.00 0.00 57 1002.4
20260504130216 56 0 4.3 5.2 0.00 0.00 0.00 70 1003.0
20260504120216 50 0 3.5 4.3 0.00 0.00 0.00 80 1002.9
20260504110238 47 225 1.7 1.7 0.00 0.00 0.00 81 1002.8
20260504100218 47 180 2.6 5.2 0.00 0.00 0.00 80 1003.0
20260504081218 49 225 0.9 1.7 0.00 0.00 0.00 75 1002.8
20260504080218 49 225 1.7 2.6 0.00 0.00 0.00 74 1002.8
20260504070217 52 225 1.7 2.6 0.00 0.00 0.00 70 1003.7